Tracking 19563 objects as of 20-Mar-2019
HD Live streaming from Space Station
objects crossing your sky now

LEMUR 2 VU

Track LEMUR 2 VU now!
10-day predictions
LEMUR 2 VU is classified as:


NORAD ID: 43558
Int'l Code: 2018-046E
Perigee: 480.6 km
Apogee: 491.9 km
Inclination: 51.6 °
Period: 94.2 minutes
Semi major axis: 6857 km
RCS: Unknown
Launch date: May 21, 2018
Source: United States (US)
Launch site: WALLOPS ISLAND (WLPIS)
aabbcc
Your satellite tracking list
Your tracking list is empty




NASA's NSSDC Master Catalog

Two Line Element Set (TLE):
1 43558U 18046E   19079.51424285  .00001541  00000-0  66676-4 0  9997
2 43558  51.6416 128.6128 0008276 107.7624 252.4260 15.28890024 37761
Source of the keplerian elements: AFSPC